WTB35Y EDDS-EDDH

Flight info

Callsign WTB35Y
Flight time N/A
Altitude 37000
Route OKIBA4B OKIBA N851 RIMKI Z99 LOHRE DCT MASEK DCT ELNAT/N0442F360 P605 NOLGO NOLGO6A
Aircraft A319/M-SDE3FGHIRWY/LB1

Departure

Time 2026-05-07 10:04
Airport Stuttgart Airport (EDDS)

Arrival

Time N/A
Airport Hamburg Helmut Schmidt Airport (EDDH)
Time Latitude Longitude Altitude Speed Heading
2026-05-07 09:50 48.68965 9.20359 1291 ft 0 kts 164°
2026-05-07 09:57 48.68966 9.20359 1285 ft 0 kts 164°
2026-05-07 09:59 48.68960 9.20361 1289 ft 3 kts 164°
2026-05-07 09:59 48.68912 9.20428 1287 ft 17 kts 83°
2026-05-07 10:00 48.68956 9.20663 1287 ft 26 kts 75°
2026-05-07 10:00 48.69009 9.20937 1287 ft 28 kts 74°
2026-05-07 10:00 48.69056 9.21189 1287 ft 26 kts 72°
2026-05-07 10:00 48.69106 9.21456 1287 ft 27 kts 74°
2026-05-07 10:01 48.69162 9.21736 1285 ft 29 kts 74°
2026-05-07 10:01 48.69218 9.22033 1285 ft 30 kts 74°
2026-05-07 10:01 48.69276 9.22342 1285 ft 31 kts 74°
2026-05-07 10:01 48.69327 9.22613 1287 ft 23 kts 74°
2026-05-07 10:02 48.69373 9.22858 1285 ft 25 kts 74°
2026-05-07 10:02 48.69423 9.23120 1288 ft 26 kts 74°
2026-05-07 10:02 48.69474 9.23391 1287 ft 28 kts 74°
2026-05-07 10:02 48.69530 9.23679 1285 ft 29 kts 74°
2026-05-07 10:03 48.69580 9.23951 1285 ft 26 kts 73°
2026-05-07 10:03 48.69588 9.24211 1289 ft 25 kts 123°
2026-05-07 10:03 48.69448 9.24336 1288 ft 25 kts 165°
2026-05-07 10:03 48.69377 9.24253 1288 ft 20 kts 252°
2026-05-07 10:04 48.69278 9.23747 1285 ft 80 kts 254°
2026-05-07 10:04 48.69075 9.22662 1290 ft 134 kts 254°
2026-05-07 10:04 48.68780 9.21135 1528 ft 160 kts 253°
2026-05-07 10:04 48.68445 9.19484 2253 ft 164 kts 254°
2026-05-07 10:05 48.68315 9.17786 3114 ft 163 kts 283°
2026-05-07 10:05 48.68912 9.16441 3900 ft 158 kts 320°
2026-05-07 10:05 48.69972 9.15875 4337 ft 179 kts 357°
2026-05-07 10:05 48.71244 9.16559 4683 ft 209 kts 26°
2026-05-07 10:06 48.72588 9.17714 5099 ft 235 kts 26°
2026-05-07 10:06 48.74084 9.19019 5609 ft 259 kts 27°
2026-05-07 10:06 48.75695 9.20431 6296 ft 274 kts 27°
2026-05-07 10:06 48.77369 9.21898 7129 ft 280 kts 27°
2026-05-07 10:07 48.79082 9.23392 8016 ft 284 kts 27°
2026-05-07 10:07 48.80802 9.24889 8893 ft 288 kts 27°
2026-05-07 10:07 48.82548 9.26407 9768 ft 292 kts 27°
2026-05-07 10:07 48.84337 9.27960 10364 ft 305 kts 27°
2026-05-07 10:08 48.86249 9.29617 10657 ft 326 kts 27°
2026-05-07 10:08 48.88254 9.31358 11248 ft 334 kts 28°
2026-05-07 10:08 48.90371 9.32865 11954 ft 337 kts 17°
2026-05-07 10:08 48.92662 9.33670 12707 ft 338 kts
2026-05-07 10:09 48.94999 9.33733 13537 ft 338 kts 355°
2026-05-07 10:09 48.97328 9.33539 14280 ft 340 kts 355°
2026-05-07 10:09 48.99703 9.33347 15000 ft 343 kts 355°
2026-05-07 10:09 49.02101 9.33157 15691 ft 346 kts 355°
2026-05-07 10:10 49.04510 9.32966 16377 ft 349 kts 355°
2026-05-07 10:10 49.06982 9.32769 17065 ft 352 kts 355°
2026-05-07 10:10 49.09404 9.32575 17718 ft 355 kts 355°
2026-05-07 10:10 49.11882 9.32378 18361 ft 358 kts 355°
2026-05-07 10:11 49.14411 9.32178 18926 ft 361 kts 355°
2026-05-07 10:11 49.16929 9.31977 19494 ft 364 kts 355°
2026-05-07 10:11 49.19476 9.31775 20017 ft 369 kts 355°
2026-05-07 10:11 49.22048 9.31570 20591 ft 371 kts 355°
2026-05-07 10:12 49.24631 9.31363 21165 ft 374 kts 355°
2026-05-07 10:12 49.27242 9.31156 21737 ft 376 kts 355°
2026-05-07 10:12 49.29865 9.30951 22304 ft 378 kts 355°
2026-05-07 10:12 49.32472 9.30752 22865 ft 381 kts 355°
2026-05-07 10:13 49.35125 9.30584 23420 ft 384 kts 358°
2026-05-07 10:13 49.37839 9.30879 23903 ft 388 kts
2026-05-07 10:13 49.40535 9.31285 24327 ft 391 kts
2026-05-07 10:13 49.43261 9.31693 24768 ft 393 kts
2026-05-07 10:14 49.45994 9.32099 25200 ft 396 kts
2026-05-07 10:14 49.48740 9.32504 25634 ft 398 kts
2026-05-07 10:14 49.51510 9.32911 26074 ft 400 kts
2026-05-07 10:14 49.54255 9.33312 26500 ft 402 kts
2026-05-07 10:15 49.57081 9.33728 26929 ft 405 kts
2026-05-07 10:15 49.59861 9.34144 27353 ft 407 kts
2026-05-07 10:15 49.62688 9.34567 27760 ft 410 kts
2026-05-07 10:15 49.65543 9.34993 28181 ft 412 kts
2026-05-07 10:16 49.68404 9.35425 28589 ft 415 kts
2026-05-07 10:16 49.71319 9.35864 29007 ft 417 kts
2026-05-07 10:16 49.74213 9.36314 29408 ft 419 kts
2026-05-07 10:16 49.77087 9.37220 29813 ft 423 kts 13°
2026-05-07 10:17 49.79954 9.38319 30172 ft 425 kts 13°
2026-05-07 10:17 49.82795 9.39406 30462 ft 428 kts 13°
2026-05-07 10:17 49.85699 9.40520 30728 ft 431 kts 13°
2026-05-07 10:17 49.88660 9.41662 30988 ft 435 kts 13°
2026-05-07 10:18 49.91604 9.42798 31248 ft 438 kts 13°
2026-05-07 10:18 49.94566 9.43944 31515 ft 441 kts 13°
2026-05-07 10:18 49.97553 9.45095 31860 ft 441 kts 12°
2026-05-07 10:18 50.00536 9.46243 32218 ft 442 kts 12°
2026-05-07 10:19 50.03521 9.47400 32571 ft 443 kts 13°
2026-05-07 10:19 50.06484 9.48500 32914 ft 443 kts
2026-05-07 10:19 50.09583 9.49125 33256 ft 443 kts
2026-05-07 10:19 50.12656 9.49625 33591 ft 444 kts
2026-05-07 10:20 50.15729 9.50130 33944 ft 445 kts
2026-05-07 10:20 50.18809 9.50646 34231 ft 446 kts
2026-05-07 10:20 50.21865 9.51167 34505 ft 446 kts
2026-05-07 10:20 50.24989 9.51703 34785 ft 447 kts
2026-05-07 10:21 50.28046 9.52224 35050 ft 448 kts
2026-05-07 10:21 50.31145 9.52744 35313 ft 448 kts
2026-05-07 10:21 50.34254 9.53263 35575 ft 449 kts
2026-05-07 10:21 50.37366 9.53783 35831 ft 450 kts
2026-05-07 10:22 50.40484 9.54306 36076 ft 450 kts
2026-05-07 10:22 50.42545 9.54652 36238 ft 450 kts
2026-05-07 10:22 50.45665 9.55177 36476 ft 451 kts
2026-05-07 10:22 50.48787 9.55706 36713 ft 452 kts
2026-05-07 10:23 50.51916 9.56239 36926 ft 452 kts
2026-05-07 10:23 50.58188 9.57311 36992 ft 453 kts
2026-05-07 10:24 50.64457 9.58386 36992 ft 453 kts
2026-05-07 10:24 50.70728 9.59453 36992 ft 453 kts
2026-05-07 10:25 50.76991 9.60558 36992 ft 453 kts
2026-05-07 10:25 50.83233 9.61784 36992 ft 453 kts
2026-05-07 10:26 50.89484 9.63044 36994 ft 453 kts
2026-05-07 10:26 50.95748 9.64281 36990 ft 453 kts
2026-05-07 10:27 51.02006 9.65494 36989 ft 453 kts
2026-05-07 10:27 51.08253 9.66705 36988 ft 453 kts
2026-05-07 10:28 51.14512 9.67937 36985 ft 453 kts
2026-05-07 10:28 51.20771 9.69162 36992 ft 453 kts
2026-05-07 10:29 51.27041 9.70251 36994 ft 453 kts
2026-05-07 10:29 51.33302 9.71220 36999 ft 453 kts
2026-05-07 10:30 51.42714 9.72697 37003 ft 453 kts
2026-05-07 10:30 51.48992 9.73738 37017 ft 453 kts